Time,TemperatureF,DewpointF,PressureIn,WindDirection,WindDirectionDegrees,WindSpeedMPH,WindSpeedGustMPH,Humidity,HourlyPrecipIn,Conditions,Clouds,dailyrainin,SoftwareType,DateUTC
2013-02-16 00:17:00,31.2,25.1,30.44,NW,316,0.0,0.0,78,0.00,,,0.00,Wunderground v.1.15,2013-02-16 06:17:00,
2013-02-16 00:26:00,30.5,24.8,30.44,NW,316,0.0,0.0,79,0.00,,,0.00,Wunderground v.1.15,2013-02-16 06:26:00,
2013-02-16 00:37:00,30.0,24.6,30.45,NW,316,0.0,0.0,80,0.00,,,0.00,Wunderground v.1.15,2013-02-16 06:37:00,
2013-02-16 00:47:00,29.7,24.6,30.45,NW,316,0.0,0.0,81,0.00,,,0.00,Wunderground v.1.15,2013-02-16 06:47:00,
2013-02-16 00:56:00,29.5,24.4,30.45,NW,316,0.0,0.0,81,0.00,,,0.00,Wunderground v.1.15,2013-02-16 06:56:00,
2013-02-16 01:07:00,29.7,24.6,30.45,NW,316,0.0,0.0,81,0.00,,,0.00,Wunderground v.1.15,2013-02-16 07:07:00,
2013-02-16 01:16:00,29.3,24.2,30.45,NW,316,0.0,0.0,81,0.00,,,0.00,Wunderground v.1.15,2013-02-16 07:16:00,
2013-02-16 01:27:00,29.0,24.2,30.45,NW,316,0.0,0.0,82,0.00,,,0.00,Wunderground v.1.15,2013-02-16 07:27:00,
2013-02-16 01:47:00,28.7,23.9,30.45,NW,316,0.0,0.0,82,0.00,,,0.00,Wunderground v.1.15,2013-02-16 07:47:00,
2013-02-16 01:56:00,28.4,23.9,30.45,NW,316,0.0,0.0,83,0.00,,,0.00,Wunderground v.1.15,2013-02-16 07:56:00,
2013-02-16 02:16:00,28.9,24.1,30.45,NW,316,0.0,0.0,82,0.00,,,0.00,Wunderground v.1.15,2013-02-16 08:16:00,
2013-02-16 02:26:00,28.6,24.1,30.45,NW,316,0.0,0.0,83,0.00,,,0.00,Wunderground v.1.15,2013-02-16 08:26:00,
2013-02-16 02:47:00,27.8,23.3,30.44,NW,316,0.0,0.0,83,0.00,,,0.00,Wunderground v.1.15,2013-02-16 08:47:00,
2013-02-16 02:56:00,27.4,23.2,30.44,NW,316,0.0,0.0,84,0.00,,,0.00,Wunderground v.1.15,2013-02-16 08:56:00,
2013-02-16 03:07:00,27.1,22.9,30.44,NW,316,0.0,0.0,84,0.00,,,0.00,Wunderground v.1.15,2013-02-16 09:07:00,
2013-02-16 03:16:00,26.9,23.0,30.45,NW,316,0.0,0.0,85,0.00,,,0.00,Wunderground v.1.15,2013-02-16 09:16:00,
2013-02-16 03:27:00,27.1,23.2,30.45,NW,316,1.0,1.0,85,0.00,,,0.00,Wunderground v.1.15,2013-02-16 09:27:00,
2013-02-16 03:37:00,27.1,23.2,30.45,NW,316,0.0,0.0,85,0.00,,,0.00,Wunderground v.1.15,2013-02-16 09:37:00,
2013-02-16 03:47:00,27.7,23.8,30.45,NW,316,1.0,1.0,85,0.00,,,0.00,Wunderground v.1.15,2013-02-16 09:47:00,
2013-02-16 03:56:00,27.5,23.3,30.45,NW,316,0.0,0.0,84,0.00,,,0.00,Wunderground v.1.15,2013-02-16 09:56:00,
2013-02-16 04:07:00,26.9,22.4,30.45,NW,316,0.0,2.0,83,0.00,,,0.00,Wunderground v.1.15,2013-02-16 10:07:00,
2013-02-16 04:17:00,26.8,22.6,30.46,NW,316,0.0,0.0,84,0.00,,,0.00,Wunderground v.1.15,2013-02-16 10:17:00,
2013-02-16 04:26:00,26.2,22.0,30.46,NW,316,0.0,0.0,84,0.00,,,0.00,Wunderground v.1.15,2013-02-16 10:26:00,
2013-02-16 04:37:00,25.8,21.9,30.46,NW,316,0.0,0.0,85,0.00,,,0.00,Wunderground v.1.15,2013-02-16 10:37:00,
2013-02-16 04:46:00,25.6,21.7,30.47,NW,316,0.0,0.0,85,0.00,,,0.00,Wunderground v.1.15,2013-02-16 10:46:00,
2013-02-16 04:56:00,25.3,21.4,30.47,NW,316,0.0,0.0,85,0.00,,,0.00,Wunderground v.1.15,2013-02-16 10:56:00,
2013-02-16 05:07:00,25.2,21.6,30.47,NW,316,0.0,0.0,86,0.00,,,0.00,Wunderground v.1.15,2013-02-16 11:07:00,
2013-02-16 05:16:00,25.0,21.4,30.48,NW,316,0.0,0.0,86,0.00,,,0.00,Wunderground v.1.15,2013-02-16 11:16:00,
2013-02-16 05:26:00,24.9,21.3,30.48,NW,316,0.0,0.0,86,0.00,,,0.00,Wunderground v.1.15,2013-02-16 11:26:00,
2013-02-16 05:37:00,24.6,21.0,30.48,NW,316,0.0,0.0,86,0.00,,,0.00,Wunderground v.1.15,2013-02-16 11:37:00,
2013-02-16 05:47:00,24.6,21.0,30.48,NW,316,0.0,0.0,86,0.00,,,0.00,Wunderground v.1.15,2013-02-16 11:47:00,
2013-02-16 05:56:00,24.6,21.3,30.48,NW,316,0.0,0.0,87,0.00,,,0.00,Wunderground v.1.15,2013-02-16 11:56:00,
2013-02-16 06:07:00,24.7,21.4,30.48,NW,316,0.0,0.0,87,0.00,,,0.00,Wunderground v.1.15,2013-02-16 12:07:00,
2013-02-16 06:16:00,24.6,21.3,30.48,NW,316,0.0,0.0,87,0.00,,,0.00,Wunderground v.1.15,2013-02-16 12:16:00,
2013-02-16 06:27:00,24.6,21.3,30.48,NW,316,0.0,0.0,87,0.00,,,0.00,Wunderground v.1.15,2013-02-16 12:27:00,
2013-02-16 06:37:00,24.4,21.1,30.49,NW,316,0.0,0.0,87,0.00,,,0.00,Wunderground v.1.15,2013-02-16 12:37:00,
2013-02-16 06:46:00,24.0,20.7,30.49,NW,316,0.0,0.0,87,0.00,,,0.00,Wunderground v.1.15,2013-02-16 12:46:00,
2013-02-16 06:57:00,23.8,20.5,30.49,NW,316,0.0,0.0,87,0.00,,,0.00,Wunderground v.1.15,2013-02-16 12:57:00,
2013-02-16 07:07:00,23.8,20.5,30.49,NW,316,0.0,0.0,87,0.00,,,0.00,Wunderground v.1.15,2013-02-16 13:07:00,
2013-02-16 07:17:00,23.7,20.4,30.50,NW,316,0.0,0.0,87,0.00,,,0.00,Wunderground v.1.15,2013-02-16 13:17:00,
2013-02-16 07:26:00,23.7,20.4,30.50,NW,316,0.0,0.0,87,0.00,,,0.00,Wunderground v.1.15,2013-02-16 13:26:00,
2013-02-16 07:37:00,23.8,20.8,30.50,NW,316,0.0,0.0,88,0.00,,,0.00,Wunderground v.1.15,2013-02-16 13:37:00,
2013-02-16 07:47:00,24.4,21.4,30.50,NW,316,0.0,0.0,88,0.00,,,0.00,Wunderground v.1.15,2013-02-16 13:47:00,
2013-02-16 07:56:00,25.8,23.0,30.50,NW,316,0.0,0.0,89,0.00,,,0.00,Wunderground v.1.15,2013-02-16 13:56:00,
2013-02-16 08:07:00,27.2,24.1,30.50,NW,316,0.0,0.0,88,0.00,,,0.00,Wunderground v.1.15,2013-02-16 14:07:00,
2013-02-16 08:16:00,29.3,26.2,30.51,NW,316,0.0,0.0,88,0.00,,,0.00,Wunderground v.1.15,2013-02-16 14:16:00,
2013-02-16 08:27:00,32.1,28.1,30.51,NW,316,0.0,0.0,85,0.00,,,0.00,Wunderground v.1.15,2013-02-16 14:27:00,
2013-02-16 08:37:00,34.5,29.0,30.51,NW,316,0.0,0.0,80,0.00,,,0.00,Wunderground v.1.15,2013-02-16 14:37:00,
2013-02-16 08:46:00,36.4,28.9,30.51,NW,316,0.0,0.0,74,0.00,,,0.00,Wunderground v.1.15,2013-02-16 14:46:00,
2013-02-16 08:57:00,39.4,28.2,30.51,WSW,255,1.0,1.0,64,0.00,,,0.00,Wunderground v.1.15,2013-02-16 14:57:00,
2013-02-16 09:07:00,41.5,25.2,30.50,WSW,238,3.0,4.0,52,0.00,,,0.00,Wunderground v.1.15,2013-02-16 15:07:00,
2013-02-16 09:17:00,43.0,25.1,30.50,SW,233,4.0,4.0,49,0.00,,,0.00,Wunderground v.1.15,2013-02-16 15:17:00,
2013-02-16 09:26:00,44.0,24.0,30.50,WSW,241,3.0,3.0,45,0.00,,,0.00,Wunderground v.1.15,2013-02-16 15:26:00,
2013-02-16 09:37:00,45.3,23.5,30.50,WSW,244,4.0,4.0,42,0.00,,,0.00,Wunderground v.1.15,2013-02-16 15:37:00,
2013-02-16 09:46:00,46.3,23.3,30.49,WSW,248,5.0,5.0,40,0.00,,,0.00,Wunderground v.1.15,2013-02-16 15:46:00,
2013-02-16 09:56:00,47.6,23.2,30.49,SW,225,4.0,4.0,38,0.00,,,0.00,Wunderground v.1.15,2013-02-16 15:56:00,
2013-02-16 10:17:00,49.4,24.2,30.48,SW,225,6.0,7.0,37,0.00,,,0.00,Wunderground v.1.15,2013-02-16 16:17:00,
2013-02-16 10:26:00,49.8,23.2,30.48,SW,229,7.0,7.0,35,0.00,,,0.00,Wunderground v.1.15,2013-02-16 16:26:00,
2013-02-16 10:37:00,51.6,21.9,30.48,WNW,292,5.0,5.0,31,0.00,,,0.00,Wunderground v.1.15,2013-02-16 16:37:00,
2013-02-16 10:46:00,51.9,22.2,30.48,WSW,255,6.0,12.0,31,0.00,,,0.00,Wunderground v.1.15,2013-02-16 16:46:00,
2013-02-16 10:56:00,52.2,22.4,30.48,WSW,252,7.0,7.0,31,0.00,,,0.00,Wunderground v.1.15,2013-02-16 16:56:00,
2013-02-16 11:07:00,53.0,24.6,30.47,SW,229,6.0,6.0,33,0.00,,,0.00,Wunderground v.1.15,2013-02-16 17:07:00,
2013-02-16 11:16:00,52.8,23.7,30.47,SW,221,6.0,6.0,32,0.00,,,0.00,Wunderground v.1.15,2013-02-16 17:16:00,
2013-02-16 11:26:00,53.5,23.6,30.47,West,263,7.0,7.0,31,0.00,,,0.00,Wunderground v.1.15,2013-02-16 17:26:00,
2013-02-16 11:37:00,54.1,24.1,30.47,West,269,5.0,5.0,31,0.00,,,0.00,Wunderground v.1.15,2013-02-16 17:37:00,
2013-02-16 11:46:00,54.4,24.4,30.46,West,273,5.0,5.0,31,0.00,,,0.00,Wunderground v.1.15,2013-02-16 17:46:00,
2013-02-16 11:56:00,55.3,24.4,30.46,SW,230,4.0,4.0,30,0.00,,,0.00,Wunderground v.1.15,2013-02-16 17:56:00,
2013-02-16 12:07:00,55.5,24.5,30.45,WSW,240,5.0,5.0,30,0.00,,,0.00,Wunderground v.1.15,2013-02-16 18:07:00,
2013-02-16 12:16:00,56.1,24.2,30.44,SW,233,4.0,7.0,29,0.00,,,0.00,Wunderground v.1.15,2013-02-16 18:16:00,
2013-02-16 12:27:00,56.4,24.5,30.44,NW,315,7.0,7.0,29,0.00,,,0.00,Wunderground v.1.15,2013-02-16 18:27:00,
2013-02-16 12:37:00,57.1,25.1,30.43,WNW,295,3.0,4.0,29,0.00,,,0.00,Wunderground v.1.15,2013-02-16 18:37:00,
2013-02-16 12:46:00,57.2,26.0,30.42,West,280,6.0,10.0,30,0.00,,,0.00,Wunderground v.1.15,2013-02-16 18:46:00,
2013-02-16 12:56:00,57.1,24.3,30.42,WSW,244,5.0,7.0,28,0.00,,,0.00,Wunderground v.1.15,2013-02-16 18:56:00,
2013-02-16 13:07:00,57.4,24.5,30.41,West,262,7.0,7.0,28,0.00,,,0.00,Wunderground v.1.15,2013-02-16 19:07:00,
2013-02-16 13:16:00,58.2,24.3,30.39,NW,308,5.0,8.0,27,0.00,,,0.00,Wunderground v.1.15,2013-02-16 19:16:00,
2013-02-16 13:27:00,58.5,24.6,30.39,West,277,7.0,7.0,27,0.00,,,0.00,Wunderground v.1.15,2013-02-16 19:27:00,
2013-02-16 13:37:00,58.5,25.5,30.38,WSW,248,5.0,5.0,28,0.00,,,0.00,Wunderground v.1.15,2013-02-16 19:37:00,
2013-02-16 13:47:00,58.8,24.9,30.37,SW,221,5.0,7.0,27,0.00,,,0.00,Wunderground v.1.15,2013-02-16 19:47:00,
2013-02-16 13:56:00,59.5,26.3,30.37,West,262,4.0,9.0,28,0.00,,,0.00,Wunderground v.1.15,2013-02-16 19:56:00,
2013-02-16 14:07:00,60.1,25.1,30.35,WSW,246,4.0,4.0,26,0.00,,,0.00,Wunderground v.1.15,2013-02-16 20:07:00,
2013-02-16 14:16:00,59.8,25.7,30.34,SSW,207,4.0,4.0,27,0.00,,,0.00,Wunderground v.1.15,2013-02-16 20:16:00,
2013-02-16 14:26:00,60.0,25.9,30.34,West,271,6.0,6.0,27,0.00,,,0.00,Wunderground v.1.15,2013-02-16 20:26:00,
2013-02-16 14:47:00,60.0,25.0,30.33,SSW,197,5.0,5.0,26,0.00,,,0.00,Wunderground v.1.15,2013-02-16 20:47:00,
2013-02-16 14:56:00,60.9,24.8,30.33,WSW,239,6.0,10.0,25,0.00,,,0.00,Wunderground v.1.15,2013-02-16 20:56:00,
2013-02-16 15:07:00,61.1,25.0,30.33,WSW,250,5.0,5.0,25,0.00,,,0.00,Wunderground v.1.15,2013-02-16 21:07:00,
2013-02-16 15:16:00,60.7,24.6,30.32,SW,218,6.0,6.0,25,0.00,,,0.00,Wunderground v.1.15,2013-02-16 21:16:00,
2013-02-16 15:26:00,61.2,25.1,30.32,NW,309,7.0,7.0,25,0.00,,,0.00,Wunderground v.1.15,2013-02-16 21:26:00,
2013-02-16 15:37:00,61.1,25.9,30.31,SW,215,6.0,12.0,26,0.00,,,0.00,Wunderground v.1.15,2013-02-16 21:37:00,
2013-02-16 15:47:00,60.9,24.8,30.30,South,189,8.0,8.0,25,0.00,,,0.00,Wunderground v.1.15,2013-02-16 21:47:00,
2013-02-16 15:56:00,61.7,24.5,30.30,SW,225,5.0,5.0,24,0.00,,,0.00,Wunderground v.1.15,2013-02-16 21:56:00,
2013-02-16 16:07:00,62.0,25.7,30.30,SW,224,5.0,5.0,25,0.00,,,0.00,Wunderground v.1.15,2013-02-16 22:07:00,
2013-02-16 16:16:00,62.0,25.7,30.30,WSW,250,5.0,5.0,25,0.00,,,0.00,Wunderground v.1.15,2013-02-16 22:16:00,
2013-02-16 16:27:00,62.0,25.7,30.30,WSW,253,5.0,5.0,25,0.00,,,0.00,Wunderground v.1.15,2013-02-16 22:27:00,
2013-02-16 16:37:00,62.3,26.0,30.29,SW,229,5.0,5.0,25,0.00,,,0.00,Wunderground v.1.15,2013-02-16 22:37:00,
2013-02-16 16:47:00,62.5,25.2,30.29,SSW,209,5.0,7.0,24,0.00,,,0.00,Wunderground v.1.15,2013-02-16 22:47:00,
2013-02-16 16:56:00,62.8,24.4,30.29,West,273,4.0,5.0,23,0.00,,,0.00,Wunderground v.1.15,2013-02-16 22:56:00,
2013-02-16 17:07:00,62.9,24.5,30.28,SW,232,3.0,6.0,23,0.00,,,0.00,Wunderground v.1.15,2013-02-16 23:07:00,
2013-02-16 17:16:00,63.1,24.7,30.28,WSW,246,4.0,4.0,23,0.00,,,0.00,Wunderground v.1.15,2013-02-16 23:16:00,
2013-02-16 17:26:00,62.8,25.4,30.28,WSW,250,4.0,4.0,24,0.00,,,0.00,Wunderground v.1.15,2013-02-16 23:26:00,
2013-02-16 17:37:00,62.6,25.3,30.27,WSW,248,3.0,4.0,24,0.00,,,0.00,Wunderground v.1.15,2013-02-16 23:37:00,
2013-02-16 17:46:00,62.5,25.2,30.27,WSW,248,2.0,2.0,24,0.00,,,0.00,Wunderground v.1.15,2013-02-16 23:46:00,
2013-02-16 17:57:00,62.0,24.8,30.27,WSW,247,1.0,2.0,24,0.00,,,0.00,Wunderground v.1.15,2013-02-16 23:57:00,
2013-02-16 18:07:00,60.9,26.7,30.27,WSW,247,1.0,1.0,27,0.00,,,0.00,Wunderground v.1.15,2013-02-17 00:07:00,
2013-02-16 18:16:00,59.7,27.4,30.27,WSW,247,0.0,0.0,29,0.00,,,0.00,Wunderground v.1.15,2013-02-17 00:16:00,
2013-02-16 18:26:00,58.0,30.5,30.27,WSW,247,0.0,0.0,35,0.00,,,0.00,Wunderground v.1.15,2013-02-17 00:26:00,
2013-02-16 18:37:00,55.6,32.2,30.27,WSW,247,0.0,0.0,41,0.00,,,0.00,Wunderground v.1.15,2013-02-17 00:37:00,
2013-02-16 18:46:00,53.0,32.2,30.28,WSW,247,0.0,0.0,45,0.00,,,0.00,Wunderground v.1.15,2013-02-17 00:46:00,
2013-02-16 18:56:00,51.3,32.3,30.28,WSW,247,0.0,0.0,48,0.00,,,0.00,Wunderground v.1.15,2013-02-17 00:56:00,
2013-02-16 19:07:00,49.0,31.6,30.28,WSW,247,0.0,0.0,51,0.00,,,0.00,Wunderground v.1.15,2013-02-17 01:07:00,
2013-02-16 19:16:00,47.2,31.8,30.28,WSW,247,0.0,0.0,55,0.00,,,0.00,Wunderground v.1.15,2013-02-17 01:16:00,
2013-02-16 19:26:00,45.7,31.8,30.28,WSW,247,0.0,0.0,58,0.00,,,0.00,Wunderground v.1.15,2013-02-17 01:26:00,
2013-02-16 19:37:00,44.8,31.8,30.29,WSW,247,0.0,0.0,60,0.00,,,0.00,Wunderground v.1.15,2013-02-17 01:37:00,
2013-02-16 19:46:00,44.0,31.8,30.29,WSW,247,0.0,0.0,62,0.00,,,0.00,Wunderground v.1.15,2013-02-17 01:46:00,
2013-02-16 19:57:00,43.5,31.7,30.29,WSW,247,0.0,0.0,63,0.00,,,0.00,Wunderground v.1.15,2013-02-17 01:57:00,
2013-02-16 20:07:00,42.7,31.4,30.29,WSW,247,0.0,0.0,64,0.00,,,0.00,Wunderground v.1.15,2013-02-17 02:07:00,
2013-02-16 20:16:00,41.8,31.3,30.28,WSW,247,0.0,0.0,66,0.00,,,0.00,Wunderground v.1.15,2013-02-17 02:16:00,
2013-02-16 20:26:00,40.8,30.7,30.28,WSW,247,0.0,0.0,67,0.00,,,0.00,Wunderground v.1.15,2013-02-17 02:26:00,
2013-02-16 20:37:00,40.0,30.6,30.28,WSW,247,0.0,0.0,69,0.00,,,0.00,Wunderground v.1.15,2013-02-17 02:37:00,
2013-02-16 20:46:00,39.3,30.3,30.28,WSW,247,0.0,0.0,70,0.00,,,0.00,Wunderground v.1.15,2013-02-17 02:46:00,
2013-02-16 20:56:00,38.5,30.3,30.28,WSW,247,0.0,0.0,72,0.00,,,0.00,Wunderground v.1.15,2013-02-17 02:56:00,
2013-02-16 21:07:00,38.1,30.2,30.28,WSW,247,0.0,0.0,73,0.00,,,0.00,Wunderground v.1.15,2013-02-17 03:07:00,
2013-02-16 21:16:00,37.8,29.9,30.28,WSW,247,0.0,0.0,73,0.00,,,0.00,Wunderground v.1.15,2013-02-17 03:16:00,
2013-02-16 21:26:00,37.5,30.0,30.28,WSW,247,0.0,0.0,74,0.00,,,0.00,Wunderground v.1.15,2013-02-17 03:26:00,
2013-02-16 21:46:00,36.2,29.0,30.27,WSW,247,0.0,0.0,75,0.00,,,0.00,Wunderground v.1.15,2013-02-17 03:46:00,
2013-02-16 21:57:00,36.1,29.3,30.27,WSW,247,0.0,0.0,76,0.00,,,0.00,Wunderground v.1.15,2013-02-17 03:57:00,
2013-02-16 22:07:00,35.7,29.2,30.28,WSW,247,0.0,0.0,77,0.00,,,0.00,Wunderground v.1.15,2013-02-17 04:07:00,
2013-02-16 22:16:00,35.2,28.7,30.27,WSW,247,0.0,0.0,77,0.00,,,0.00,Wunderground v.1.15,2013-02-17 04:16:00,
2013-02-16 22:26:00,34.9,28.7,30.27,WSW,247,0.0,0.0,78,0.00,,,0.00,Wunderground v.1.15,2013-02-17 04:26:00,
2013-02-16 22:37:00,34.9,28.7,30.27,WSW,247,0.0,0.0,78,0.00,,,0.00,Wunderground v.1.15,2013-02-17 04:37:00,
2013-02-16 22:46:00,34.5,28.3,30.27,WSW,247,0.0,0.0,78,0.00,,,0.00,Wunderground v.1.15,2013-02-17 04:46:00,
2013-02-16 22:56:00,33.7,27.9,30.27,WSW,247,0.0,0.0,79,0.00,,,0.00,Wunderground v.1.15,2013-02-17 04:56:00,
2013-02-16 23:07:00,33.3,27.8,30.27,WSW,247,0.0,0.0,80,0.00,,,0.00,Wunderground v.1.15,2013-02-17 05:07:00,
2013-02-16 23:16:00,33.3,27.8,30.26,WSW,247,0.0,0.0,80,0.00,,,0.00,Wunderground v.1.15,2013-02-17 05:16:00,
2013-02-16 23:26:00,33.4,28.2,30.26,WSW,247,0.0,0.0,81,0.00,,,0.00,Wunderground v.1.15,2013-02-17 05:26:00,
2013-02-16 23:46:00,32.4,26.9,30.26,WSW,247,0.0,0.0,80,0.00,,,0.00,Wunderground v.1.15,2013-02-17 05:46:00,
2013-02-16 23:56:00,31.8,26.9,30.26,WSW,247,0.0,0.0,82,0.00,,,0.00,Wunderground v.1.15,2013-02-17 05:56:00,